FENGYUN 1C DEB, 30079

Orbit data source: Space-Track

FENGYUN 1C DEB, 30079 is space debris in SSO originally from a launch on Mon, 10 May 1999 UTC launched from the Taiyaun Space Center, China (TSC). Fengyun 1C debris stems from the Chinese weather satellite Fengyun-1C, which was intentionally destroyed by a Chinese anti-satellite missile in 2007. This event dramatically increased the amount of space debris, with thousands of trackable fragments posing hazards to satellites and human spaceflight. The Fengyun 1C debris cloud has become a focal point in discussions about space sustainability and the need for international regulations to prevent the creation of new debris.

Loading next visibility...
Identifier
30079, 1999-025QG
Orbit
SSO
Country
Flag of CNCN / PRC
Related business
Manufacturer
Unknown
Mission
Spacecraft
Bus & Motor
Unknown
Mass
Unknown
Launch date (UTC)
1999-05-10 (27 years ago)
Launch vehicle
Unknown
Launch site
Taiyaun Space Center, China (TSC)
Object type
Payload
Rocket body
Debris
Shape & HBR
Unknown shape, 0.1 m
Radar Cross Section
Small (<0.1 m²)

Expand to show TLE details & history
Last TLE update: 11 hours ago

TLE from 11 hours ago
0 FENGYUN 1C DEB
1 30079U 99025QG  26071.12249460  .00000216  00000-0  16836-3 0  9994
2 30079  99.0124 130.5771 0086613  53.3339   2.1902 14.00847232977895
Epoch: 2026-03-12T02:56Z
TLE epoch observation values (Epoch: 2026-03-12T02:56:23.533Z)
Latitude
54.64483°
Longitude
-96.14595°
Altitude
836.912 km
Speed
7.472 km/s
True Right ascension
07h 50m 54s
True Declination
54° 29' 03"
Sunlit
Object was in daylight at epoch
Visualization orbit readout
Latitude
Unknown
Longitude
Unknown
Altitude
Unknown
Speed
Unknown
Apparent Right ascension
Unknown
Apparent Declination
Unknown
Sunlit
N/A
Visualization observer readout
Local Sidereal Time
17:48:25
Azimuth
Unknown
Elevation
Unknown
Doppler factor
Unknown
Orbital elements
Apogee altitude
950.996 km
Perigee altitude
825.127 km
Semi-major axis
7,266.198 km
Eccentricity
0.00866
Inclination
99.0124°
RAAN
130.5771°
Arg. of periapsis
53.3339°
True anomaly
2.22855°
Mean anomaly
2.1902°
Eccentric anomaly
2.20933°
Mean motion
3.50415 °/min
Orbital period
102.74 mins
BSTAR
0.00016836
Loading maneuver chart data...
Computing Atmospheric mass density...
Loading historical data...
Loading historical data...
Loading historical data...
Loading historical data...
Loading historical data...
Loading historical data...
Loading historical data...

Documentation

Showing up to 5 results
|